Satellite: SEDSAT 1
Catalog number: 25509
Epoch time:      103118.18824527
Element set:     833 
Inclination:       31.4271 deg
RA of node:       125.6404 deg
Eccentricity:    0.0357506
Arg of perigee:   182.1331 deg
Mean anomaly:     177.7805 deg
Mean motion:   14.27490994 rev/day
Decay rate:    4.5100E-006 rev/day^2
Epoch rev:           23512
Checksum:              291

Satellite: PAN SAT
Catalog number: 25520
Epoch time:      103118.17808082
Element set:     664 
Inclination:       28.4588 deg
RA of node:       126.7394 deg
Eccentricity:    0.0005597
Arg of perigee:    17.4501 deg
Mean anomaly:     342.6302 deg
Mean motion:   15.14234618 rev/day
Decay rate:    2.8730E-005 rev/day^2
Epoch rev:           24799
Checksum:              308

Satellite: ISS (ZARYA)
Catalog number: 25544
Epoch time:      103118.50706053
Element set:     940 
Inclination:       51.6312 deg
RA of node:       269.8439 deg
Eccentricity:    0.0006211
Arg of perigee:    65.3945 deg
Mean anomaly:      60.3754 deg
Mean motion:   15.58617893 rev/day
Decay rate:   -1.7843E-004 rev/day^2
Epoch rev:           25325
Checksum:              305

Satellite: ORSTED
Catalog number: 25635
Epoch time:      103117.94898880
Element set:     894 
Inclination:       96.4631 deg
RA of node:        87.8767 deg
Eccentricity:    0.0146305
Arg of perigee:   111.7261 deg
Mean anomaly:     249.9583 deg
Mean motion:   14.44939617 rev/day
Decay rate:    6.9399E-006 rev/day^2
Epoch rev:           21981
Checksum:              376

Satellite: SUNSAT
Catalog number: 25636
Epoch time:      103117.95122681
Element set:     697 
Inclination:       96.4642 deg
RA of node:        86.3940 deg
Eccentricity:    0.0150004
Arg of perigee:   118.7523 deg
Mean anomaly:     242.8836 deg
Mean motion:   14.43004467 rev/day
Decay rate:    3.1199E-006 rev/day^2
Epoch rev:           21967
Checksum:              315

Satellite: UOSAT 12
Catalog number: 25693
Epoch time:      103118.50400367
Element set:     920 
Inclination:       64.5589 deg
RA of node:       159.7816 deg
Eccentricity:    0.0026525
Arg of perigee:   311.8023 deg
Mean anomaly:      48.0820 deg
Mean motion:   14.76461797 rev/day
Decay rate:    3.7499E-006 rev/day^2
Epoch rev:           21643
Checksum:              325

Satellite: FENGYUN 1C
Catalog number: 25730
Epoch time:      103118.18864870
Element set:     822 
Inclination:       98.6269 deg
RA of node:       139.9978 deg
Eccentricity:    0.0014546
Arg of perigee:   163.4294 deg
Mean anomaly:     196.7357 deg
Mean motion:   14.11741147 rev/day
Decay rate:   -1.5999E-007 rev/day^2
Epoch rev:           20431
Checksum:              348

Satellite: ASTRA 1H
Catalog number: 25785
Epoch time:      103108.00000000
Element set:     379 
Inclination:        0.0122 deg
RA of node:       319.8851 deg
Eccentricity:    0.0002995
Arg of perigee:    65.1991 deg
Mean anomaly:     199.8210 deg
Mean motion:    1.00273184 rev/day
Decay rate:    1.1399E-006 rev/day^2
Epoch rev:            1408
Checksum:              262

Satellite: TERRA
Catalog number: 25994
Epoch time:      103118.25641795
Element set:     922 
Inclination:       98.1873 deg
RA of node:       193.3692 deg
Eccentricity:    0.0000893
Arg of perigee:    88.8389 deg
Mean anomaly:     271.2914 deg
Mean motion:   14.57148061 rev/day
Decay rate:    7.3599E-006 rev/day^2
Epoch rev:           17867
Checksum:              368

Satellite: JAWSAT
Catalog number: 26061
Epoch time:      103117.56417261
Element set:     822 
Inclination:      100.1943 deg
RA of node:       187.2090 deg
Eccentricity:    0.0035710
Arg of perigee:    87.5556 deg
Mean anomaly:     272.9714 deg
Mean motion:   14.37908794 rev/day
Decay rate:    5.3799E-006 rev/day^2
Epoch rev:           17030
Checksum:              310

Satellite: OPAL
Catalog number: 26063
Epoch time:      103118.21015677
Element set:     772 
Inclination:      100.1952 deg
RA of node:       185.1924 deg
Eccentricity:    0.0037429
Arg of perigee:    93.3140 deg
Mean anomaly:     267.2323 deg
Mean motion:   14.35511808 rev/day
Decay rate:    1.6799E-006 rev/day^2
Epoch rev:           17023
Checksum:              288

Satellite: ASUSAT
Catalog number: 26065
Epoch time:      103118.23533941
Element set:     791 
Inclination:      100.1986 deg
RA of node:       185.3914 deg
Eccentricity:    0.0037978
Arg of perigee:    94.7517 deg
Mean anomaly:     265.8000 deg
Mean motion:   14.35541952 rev/day
Decay rate:    1.9700E-006 rev/day^2
Epoch rev:           17023
Checksum:              306

Satellite: GOES 11
Catalog number: 26352
Epoch time:      103118.36406463
Element set:     133 
Inclination:        0.3119 deg
RA of node:        98.4008 deg
Eccentricity:    0.0002178
Arg of perigee:   260.3624 deg
Mean anomaly:     234.2024 deg
Mean motion:    1.00273488 rev/day
Decay rate:   -3.4999E-007 rev/day^2
Epoch rev:            1092
Checksum:              269

Satellite: EUTELSAT W4
Catalog number: 26369
Epoch time:      103115.87831020
Element set:     377 
Inclination:        0.0645 deg
RA of node:        30.1196 deg
Eccentricity:    0.0007677
Arg of perigee:    50.0705 deg
Mean anomaly:     125.5317 deg
Mean motion:    1.00275424 rev/day
Decay rate:    1.4199E-006 rev/day^2
Epoch rev:            1071
Checksum:              264

Satellite: FENGYUN 2B
Catalog number: 26382
Epoch time:      103118.25911765
Element set:     839 
Inclination:        0.4004 deg
RA of node:       291.8184 deg
Eccentricity:    0.0001027
Arg of perigee:   261.3337 deg
Mean anomaly:     220.6376 deg
Mean motion:    1.00280045 rev/day
Decay rate:   -3.3700E-006 rev/day^2
Epoch rev:            1040
Checksum:              248

Satellite: EUTELSAT W1
Catalog number: 26487
Epoch time:      103117.88206598
Element set:     392 
Inclination:        0.0415 deg
RA of node:       111.1152 deg
Eccentricity:    0.0004401
Arg of perigee:   273.7864 deg
Mean anomaly:     158.0368 deg
Mean motion:    1.00273626 rev/day
Decay rate:    6.1999E-007 rev/day^2
Epoch rev:             970
Checksum:              292

Satellite: ASTRA 2B
Catalog number: 26494
Epoch time:      103108.00000000
Element set:     262 
Inclination:        0.0178 deg
RA of node:       354.5658 deg
Eccentricity:    0.0005000
Arg of perigee:   302.8402 deg
Mean anomaly:     296.4717 deg
Mean motion:    1.00276704 rev/day
Decay rate:    1.4400E-006 rev/day^2
Epoch rev:             950
Checksum:              226

Satellite: NOAA 16
Catalog number: 26536
Epoch time:      103118.46238737
Element set:     306 
Inclination:       98.9107 deg
RA of node:        66.2778 deg
Eccentricity:    0.0011315
Arg of perigee:   109.5575 deg
Mean anomaly:     250.6813 deg
Mean motion:   14.11946525 rev/day
Decay rate:    4.5400E-006 rev/day^2
Epoch rev:           13387
Checksum:              316

Satellite: SAUDISAT 1A
Catalog number: 26545
Epoch time:      103117.70031872
Element set:     445 
Inclination:       64.5590 deg
RA of node:       182.4934 deg
Eccentricity:    0.0046898
Arg of perigee:   227.9504 deg
Mean anomaly:     131.7629 deg
Mean motion:   14.79159593 rev/day
Decay rate:    1.3009E-005 rev/day^2
Epoch rev:           13930
Checksum:              324

Satellite: UNISAT
Catalog number: 26547
Epoch time:      103118.39215037
Element set:     464 
Inclination:       64.5574 deg
RA of node:       182.3130 deg
Eccentricity:    0.0053987
Arg of perigee:   229.0777 deg
Mean anomaly:     130.5592 deg
Mean motion:   14.80039527 rev/day
Decay rate:    2.1510E-005 rev/day^2
Epoch rev:           13937
Checksum:              403

Satellite: TIUNGSAT 1
Catalog number: 26548
Epoch time:      103118.22387139
Element set:     447 
Inclination:       64.5569 deg
RA of node:       173.0006 deg
Eccentricity:    0.0040074
Arg of perigee:   228.4454 deg
Mean anomaly:     131.3211 deg
Mean motion:   14.81501003 rev/day
Decay rate:    1.5780E-005 rev/day^2
Epoch rev:           13953
Checksum:              275

Satellite: SAUDISAT 1B
Catalog number: 26549
Epoch time:      103117.65024099
Element set:     733 
Inclination:       64.5498 deg
RA of node:       187.1075 deg
Eccentricity:    0.0051458
Arg of perigee:   227.3939 deg
Mean anomaly:     132.2826 deg
Mean motion:   14.78087202 rev/day
Decay rate:    1.1860E-005 rev/day^2
Epoch rev:           13920
Checksum:              318

Satellite: AMSAT OSCAR 40
Catalog number: 26609
Epoch time:      103116.94145327
Element set:     326 
Inclination:        8.5938 deg
RA of node:        51.9652 deg
Eccentricity:    0.7956302
Arg of perigee:   168.1313 deg
Mean anomaly:     239.3780 deg
Mean motion:    1.25596936 rev/day
Decay rate:   -4.6899E-006 rev/day^2
Epoch rev:            1143
Checksum:              413

Satellite: GOES 12
Catalog number: 26871
Epoch time:      103116.15869021
Element set:     936 
Inclination:        0.1624 deg
RA of node:       274.1756 deg
Eccentricity:    0.0000799
Arg of perigee:   133.9344 deg
Mean anomaly:     148.1443 deg
Mean motion:    1.00345228 rev/day
Decay rate:   -2.7099E-006 rev/day^2
Epoch rev:             650
Checksum:              290

